Location: Ferchesar
(52.6477°N, 12.4298°E)
Time: 04:23:34
(UTC+01:00)

Explorer 7 - Pass Details

Date: 09 December 2021
Orbit: 483 x 674 km, 50.3° (Epoch: 21 January)

Event Time Altitude Azimuth Distance (km) Brightness Sun altitude
Rises 08:14:30 0° 277° (W) 2,762 9.9 -0.3°
Reaches altitude 10° 08:16:53 10° 271° (W) 1,830 9.0 0.0°
Maximum altitude 08:20:50 44° 199° (SSW) 734 7.7 0.5°
Drops below altitude 10° 08:24:34 10° 126° (SE) 1,727 11.7 0.9°
Sets 08:26:46 0° 120° (ESE) 2,588 12.5 1.2°
